Location: Bratislava
(48.1500°N, 17.1170°E)
Time: 20:21:57
(UTC+02:00)

ISS - Pass Details

Date: 25 March 2019
Orbit: 408 x 410 km, 51.6° (Epoch: 22 April)

Event Time Altitude Azimuth Distance (km) Brightness Sun altitude
Rises 18:37:17 0° 227° (SW) 2,328 0.6 -5.2°
Reaches altitude 10° 18:39:25 10° 221° (SW) 1,469 -0.5 -5.5°
Maximum altitude 18:42:34 44° 148° (SSE) 580 -3.3 -6.1°
Drops below altitude 10° 18:45:44 10° 75° (ENE) 1,475 -1.5 -6.6°
Enters shadow 18:46:27 - 72° (ENE) 1,761 -1.1 -6.7°
